TimeMDT,TemperatureF,Dew PointF,Humidity,Sea Level PressureIn,VisibilityMPH,Wind Direction,Wind SpeedMPH,Gust SpeedMPH,PrecipitationIn,Events,Conditions,WindDirDegrees,DateUTC
12:53 AM,28.0,25.0,88,30.47,10.0,West,3.5,-,N/A,,Clear,270,2012-10-06 06:53:00
1:53 AM,26.1,23.0,88,30.45,10.0,Calm,Calm,-,N/A,,Clear,0,2012-10-06 07:53:00
2:53 AM,27.0,24.1,89,30.45,10.0,Calm,Calm,-,N/A,,Clear,0,2012-10-06 08:53:00
4:53 AM,28.0,25.0,88,30.41,10.0,SW,8.1,-,N/A,,Clear,220,2012-10-06 10:53:00
5:53 AM,26.1,23.0,88,30.40,10.0,SW,4.6,-,N/A,,Clear,230,2012-10-06 11:53:00
6:53 AM,27.0,24.1,89,30.40,10.0,SSW,4.6,-,N/A,,Clear,210,2012-10-06 12:53:00
7:53 AM,24.8,21.2,86,30.30,10.0,South,3.5,-,N/A,,Clear,180,2012-10-06 13:53:00
8:53 AM,28.9,26.1,89,30.38,10.0,Calm,Calm,-,N/A,,Clear,0,2012-10-06 14:53:00
9:53 AM,34.0,28.9,82,30.35,10.0,SSW,6.9,-,N/A,,Clear,210,2012-10-06 15:53:00
10:53 AM,42.1,26.1,53,30.32,10.0,SW,21.9,28.8,N/A,,Scattered Clouds,230,2012-10-06 16:53:00
11:53 AM,46.0,25.0,44,30.29,10.0,SW,20.7,26.5,N/A,,Overcast,230,2012-10-06 17:53:00
12:53 PM,46.9,27.0,46,30.28,10.0,SW,20.7,-,N/A,,Mostly Cloudy,230,2012-10-06 18:53:00
1:53 PM,50.0,28.0,43,30.25,10.0,WSW,17.3,24.2,N/A,,Mostly Cloudy,240,2012-10-06 19:53:00
2:53 PM,53.1,26.1,35,30.23,10.0,WSW,13.8,18.4,N/A,,Clear,250,2012-10-06 20:53:00
3:53 PM,54.0,27.0,35,30.21,10.0,NW,10.4,-,N/A,,Mostly Cloudy,310,2012-10-06 21:53:00
4:53 PM,54.0,28.0,37,30.20,10.0,NW,9.2,-,N/A,,Overcast,310,2012-10-06 22:53:00
5:53 PM,54.0,28.9,38,30.19,10.0,NW,12.7,-,N/A,,Overcast,310,2012-10-06 23:53:00
6:53 PM,50.0,34.0,54,30.19,10.0,WNW,5.8,-,N/A,,Overcast,290,2012-10-07 00:53:00
7:53 PM,39.9,33.1,77,30.21,10.0,West,3.5,-,N/A,,Clear,260,2012-10-07 01:53:00
8:53 PM,37.4,33.8,87,30.13,10.0,West,3.5,-,N/A,,Clear,260,2012-10-07 02:53:00
9:53 PM,39.9,34.0,79,30.19,10.0,SW,8.1,-,N/A,,Clear,230,2012-10-07 03:53:00
10:53 PM,39.9,36.0,86,30.17,10.0,SW,10.4,-,N/A,,Clear,230,2012-10-07 04:53:00
11:53 PM,37.9,35.1,89,30.16,10.0,WSW,6.9,-,N/A,,Clear,240,2012-10-07 05:53:00